Current weather by "City, St" or "zip code"  
 

Current Conditions: North Adams Harriman-and-West Airport, MA

Light Rain


41.0 F

Last Updated on Oct 29 2020, 9:52 pm EDT
Humidity: 82%
Wind Speed: SE 3.5 mph
Barometer 29.74 in
Dewpoint: 36.0 F
Visibility: 4.00 mi
Precip: 00.01 in
Heat Index: NA
Wind Chill: NA
Current conditions at:

North Adams Harriman-and-West Airport, MA (KAQW)

Lat: 42.69731 Lon: 73.16955

Local Radar Image active severe weather and emergency alerts image image weather storm and storm spotter reports image weather observation monitoring service image
Local
Radar
Active
Alerts
Storm Reports Obs
Monitoring

Sign-up For Email & Text Message Weather Alert Notification Services



Advertise Here

Observation History for North Adams Harriman-and-West Airport, MA


Time Wind
(mph)
Vis
(mi)
Weather Precip (in) Temperature (F) Relative
Humidity
Wind
Chill
(F)
Heat
Index
(F)
Pressure
Air Dwpt altimeter
(in)
sea level
(mb)
Rmks
9:52 pm EDT SE 3.5 4.00 Light Rain 00.01 41.0 36.0 82% NA NA 29.74 1007.6
8:52 pm EDT E 9.2 10.00 Overcast 00.01 42.0 36.0 79% 36 NA 29.71 1006.6
7:52 pm EDT 10.00 Light Rain 00.04 43.0 39.0 86% NA NA 29.73 1007.1
6:52 pm EDT N 0.0 10.00 Light Rain 00.04 44.0 41.0 89% NA NA 29.73 1007.1
5:52 pm EDT N 0.0 6.00 Light Rain Fog/Mist 00.04 43.0 41.0 93% NA NA 29.74 1007.5
4:52 pm EDT N 0.0 5.00 Light Rain Fog/Mist 00.06 44.0 42.1 93% NA NA 29.74 1007.4
3:52 pm EDT N 0.0 10.00 Light Rain 00.05 45.0 42.1 90% NA NA 29.74 1007.4
2:52 pm EDT N 0.0 5.00 Light Rain Fog/Mist 00.10 46.0 42.1 86% NA NA 29.77 1008.4
1:52 pm EDT N 0.0 6.00 Light Rain Fog/Mist 00.07 47.0 44.1 90% NA NA 29.80 1009.6
12:52 pm EDT N 0.0 5.00 Light Rain 00.08 47.0 42.1 83% NA NA 29.84 1011.0
11:52 am EDT N 0.0 6.00 Light Rain Fog/Mist 00.03 46.0 43.0 89% NA NA 29.84 1010.9
10:52 am EDT N 0.0 10.00 Light Rain Trace 46.0 42.1 86% NA NA 29.85 1011.3
9:52 am EDT N 0.0 10.00 Overcast -- 45.0 42.1 90% NA NA 29.90 1012.9
8:52 am EDT 3.5 10.00 Overcast -- 43.0 41.0 93% NA NA 29.90 1013.0
7:52 am EDT N 0.0 8.00 Mostly Cloudy -- 42.0 39.9 92% NA NA 29.91 1013.1
6:52 am EDT N 0.0 10.00 Fair -- 41.0 39.0 93% NA NA 29.92 1013.6
5:52 am EDT N 0.0 9.00 Fair -- 41.0 39.9 96% NA NA 29.94 1014.2
4:52 am EDT N 0.0 8.00 Fair -- 41.0 39.9 96% NA NA 29.92 1013.7
3:52 am EDT N 0.0 10.00 Fair -- 42.0 39.9 92% NA NA 29.93 1013.8
1:52 am EDT W 10.4 10.00 Mostly Cloudy -- 46.0 41.0 83% 41 NA 29.94 1014.1
12:52 am EDT W 10.4 10.00 Overcast -- 47.0 42.1 83% 42 NA 29.95 1014.6
11:52 pm EDT W 8.1 10.00 Overcast -- 47.0 43.0 86% 43 NA 29.96 1014.9
10:52 pm EDT W 6.9 10.00 Overcast -- 47.0 44.1 90% 44 NA 29.95 1014.7

Regional Weather Observation


North Adams Harriman-and-West Airport, MA (KAQW)

Light Rain
41.0 F

Albany International Airport, NY (KALB)

Light Rain Fog/Mist
38.0 F

Schenectady Airport, NY (KSCH)

Overcast
41.0 F

Pittsfield Municipal Airport, MA (KPSF)

Light Rain Fog/Mist
41.0 F

Glens Falls, Floyd Bennett Memorial Airport, NY (KGFL)

Light Rain
40.0 F

Rutland-Southern Vermont Regional Airport, VT (KRUT)

Light Rain
39.0 F